Location: Fatehalanka
(16.3139°N, 80.8379°E)
Time: 08:00:36
(UTC+00:00)

Meteosat 1 Rocket2 - Pass Details

Date: 14 May 2026
Orbit: 485 x 2266 km, 28.3° (Epoch: 6 June)

Event Time Altitude Azimuth Distance (km) Brightness Sun altitude
Exits shadow 22:12:01 17° 305° (NW) 2,537 5.9 -25.7°
Maximum altitude 22:17:30 54° 17° (NNE) 1,073 4.4 -24.6°
Drops below altitude 10° 22:22:25 10° 95° (E) 2,148 6.6 -23.6°
Sets 22:24:27 0° 100° (E) 2,907 7.3 -23.1°
